Location: Newark
(51.3318°N, 0.0053°E)
Time: 21:59:23
(UTC+00:00)

ONEWEB-0421 - Visible Passes

Search period start: 30 May 2024 00:00
Search period end: 09 June 2024 00:00
Orbit: 1188 x 1191 km, 87.9° (Epoch: 30 May)

Date Brightness Start Highest point End Pass type
(mag) Time Alt. Az. Time Alt. Az. Time Alt. Az.
30 May ? 01:07:24 10° NNE 01:10:59 14° ENE 01:14:34 10° E visible
30 May ? 02:54:49 10° N 03:02:02 60° E 03:09:10 10° SSE visible
31 May ? 00:48:57 10° NE 00:50:58 11° NE 00:52:57 10° ENE visible
31 May ? 02:35:17 10° N 02:42:19 49° E 02:49:18 10° SSE visible
01 Jun ? 02:15:47 10° N 02:22:35 41° ENE 02:29:19 10° SE visible
02 Jun ? 01:56:19 10° N 02:02:48 33° ENE 02:09:14 10° SE visible
03 Jun ? 01:36:54 10° NNE 01:42:58 28° ENE 01:49:00 10° SE visible
04 Jun ? 01:17:34 10° NNE 01:23:07 23° ENE 01:28:36 10° ESE visible
05 Jun ? 00:58:19 10° NNE 01:03:11 19° ENE 01:08:02 10° ESE visible
05 Jun ? 02:46:30 10° N 02:53:48 78° E 03:01:04 10° S visible
06 Jun ? 00:39:15 10° NNE 00:43:14 15° ENE 00:47:11 10° E visible
06 Jun ? 02:26:55 10° N 02:34:09 64° E 02:41:20 10° SSE visible
07 Jun ? 00:20:32 10° NE 00:23:13 12° ENE 00:25:53 10° E visible
07 Jun ? 02:07:22 10° N 02:14:28 53° E 02:21:31 10° SSE visible
08 Jun ? 01:47:50 10° N 01:54:44 43° ENE 02:01:35 10° SSE visible
